www.pogodaiklimat.ru

Погода и климат >> Архив погоды >> Южная Африка >> Хоэдспруит


ПОГОДА в Хоэдспруите

  • Прогноз погоды в Хоэдспруите
  • Монитор погоды в Хоэдспруите

АРХИВ ПОГОДЫ в Хоэдспруите

Время (UTC), дата Ветер
(напр.,м/с)
 
Видим.   Явления Облачность Т
(С)
Тd
(С)
f
(%)
Тe
(С)
Тes
(С)
Комфортность P
(гПа)
Po
(гПа)
Тmin
(С)
Tmax
(С)
R
(мм)
R24
(мм)
S
(см)
21 11.07 СЗ 1 н/о н/о +20.2 +1.2 28 +21 +21 комфорт 962.1 +18.3 +30.4
00 12.07 З 2 н/о н/о +13.7 -0.2 38 +13 +13 961.4 +13.6 +30.4
03 12.07 З 2 н/о н/о +13.1 -0.8 38 +13 +13 961.0 +12.8 +30.4
06 12.07 З 2 н/о н/о +17.0 +0.3 32 +18 +18 962.5 +12.4
09 12.07 СЗ 3 н/о н/о +25.4 -0.3 18 +24 +24 комфорт 962.8 +12.4 +26.0
12 12.07 С 4 н/о н/о +30.2 -4.4 10 +27 +27 жарко 960.4 +12.4 +30.2
15 12.07 СВ 3 н/о н/о +27.6 -7.8 9 +24 +24 комфорт 961.0 +27.6 +30.5
18 12.07 СВ 2 н/о н/о +22.5 -5.2 15 +21 +21 комфорт 962.5 +21.6 +30.5
21 12.07 Ю 8 н/о н/о +17.0 +12.9 77 +16 +16 965.1 +16.9 +30.5
00 13.07 Ю 7 н/о н/о +14.8 +11.0 78 +13 +13 965.1 +14.8 +30.5
03 13.07 Ю 3 н/о н/о +12.8 +10.3 85 +12 +12 966.0 +12.7 +30.5
06 13.07 ЮЗ 2 н/о н/о +16.1 +10.9 71 +16 +16 967.5 +12.7
09 13.07 ЮЗ 2 н/о н/о +20.1 +10.0 52 +22 +22 комфорт 967.6 +12.7 +20.6
12 13.07 Ю 2 н/о н/о +23.5 +8.9 39 +24 +24 комфорт 964.2 +12.7 +23.5
15 13.07 штиль 0 н/о н/о +22.1 +7.6 39 +23 +23 комфорт 963.8 +22.1 +24.2
18 13.07 В 2 н/о н/о +18.0 +8.1 52 +19 +19 964.8 +18.0 +24.2
21 13.07 штиль 0 н/о н/о +14.9 +7.7 62 +15 +15 965.5 +14.7 +24.2
00 14.07 З 2 н/о н/о +12.8 +7.0 68 +12 +12 964.1 +12.7 +24.2
03 14.07 З 2 н/о н/о +11.3 +5.6 68 +10 +10 964.3 +10.2 +24.2
06 14.07 ЮЗ 2 н/о н/о +13.7 +5.6 58 +14 +14 965.8 +10.2
09 14.07 С 4 н/о н/о +20.7 +10.0 50 +23 +23 комфорт 965.9 +10.2 +20.7
12 14.07 СВ 3 н/о н/о +24.4 +6.4 31 +24 +24 комфорт 962.5 +10.2 +25.4
15 14.07 СВ 3 н/о н/о +23.4 +5.9 32 +24 +24 комфорт 962.3 +23.2 +25.7
09 17.07 СЗ 5 н/о н/о +23.8 +3.9 27 +23 +23 комфорт 965.9 +10.7 +23.8
12 17.07 С 5 н/о н/о +26.6 -4.8 12 +24 +24 комфорт 962.8 +10.7 +27.2
15 17.07 С 4 н/о н/о +25.0 -4.1 14 +23 +23 комфорт 962.4 +24.5 +27.4
18 17.07 С 2 н/о н/о +20.0 +1.1 28 +21 +21 комфорт 963.0 +19.0 +27.4
21 17.07 СЗ 2 н/о н/о +17.3 -1.2 28 +18 +18 963.3 +15.4 +27.4
00 18.07 З 2 н/о н/о +12.5 -3.6 32 +12 +12 963.0 +12.5 +27.4
03 18.07 СЗ 2 н/о н/о +12.2 -3.1 34 +12 +12 962.1 +11.1 +27.4
06 18.07 З 2 н/о н/о +16.2 -3.2 26 +16 +16 962.7 +10.9
12 18.07 СВ 4 н/о н/о +27.9 -6.2 10 +25 +25 комфорт 959.5 +10.9 +29.2
15 18.07 СВ 4 н/о н/о +26.0 -7.7 10 +23 +23 комфорт 958.5 +25.7 +29.4
18 18.07 С 2 н/о н/о +20.9 -7.4 14 +21 +21 комфорт 958.8 +20.5 +29.4

 

Местоположение метеостанции Хоэдспруит (Южная Африка): широта -24.35 долгота 31.05 высота над уровнем моря 524 м.

В архиве по умолчанию представлена погода в Хоэдспруите за последнюю неделю. Архивные данные за месяц целиком и за предыдущие месяцы, начиная с января 2011 года, Вы можете получить, выбрав интересующий диапазон дат из раскрывающегося списка и нажав кнопку "Ввод!".


*Определитесь, кто Вы:
робот инопланетянин человек

Внимание! Время в таблицах - всемирное. Для получения местного времени необходимо прибавить поправку, которая равна 2 ч.

Смотрите также архив погоды в соседних городах и на ближайших метеорологических станциях:

Погода на Базе ВВС Hoedspruit (Южная Африка) (3 км)
Погода в Пхалаборве (Южная Африка) (47 км)
Погода в Граскопе (Южная Африка) (68 км)
Погода в Граскоп-Скуле (Южная Африка) (68 км)
Погода в Вувулане (Свазиленд) (88 км)
Погода в Скукузе (Южная Африка) (89 км)
Погода в Линденбурге 2 (Южная Африка) (102 км)
Погода в Линденбурге (Южная Африка) (103 км)
Погода в Тзанеене (Южная Африка) (108 км)
Погода в Тзанеен-Греншоек (Южная Африка) (119 км)

Пояснения к столбцам:

Ветер - указаны скорость ветра в м/с - средняя за 10 мин, порывы в срок и между сроками (в фигурных скобках) и направление, откуда дует ветер: С - северный, СВ - северо-восточный, В - восточный, ЮВ - юго-восточный, Ю - южный, ЮЗ - юго-западный, З - западный, СЗ - северо-западный.
Видимость - горизонтальная дальность видимости в метрах или километрах. При видимости от 1 до 10 км при отсутствии осадков обычно наблюдается дымка, при ухудшении видимости до 1 км и менее - туман. В сухую погоду видимость может ухудшаться дымом, пылью или мглою.
Явления - указаны атмосферные явления, наблюдавшиеся в срок или в последний час перед сроком; фигурными скобками обозначены явления, наблюдавшиеся между сроками (за 1-3 часа до срока); квадратными скобками обозначены град или гололедные отложения с указанием их диаметра в мм.
Облачность - указаны через наклонную черту общая и нижняя облачность в баллах и высота нижней границы облаков в метрах; квадратными скобками обозначены формы облаков: Ci - перистые, Cs - перисто-слоистые, Cc - перисто-кучевые, Ac - высококучевые, As - высокослоистые, Sc - слоисто-кучевые, Ns - слоисто-дождевые, Cu - кучевые, Cb - кучево-дождевые. Подробнее классификацию облаков см. в Атласе облаков (PDF).
T - Температура воздуха - температура, измеренная на высоте 2 м над землей.
Td - Температура точки росы - температура, при понижении до которой содержащийся в воздухе водяной пар достигнет насыщения.
f - Относительная влажность воздуха - влажноcть воздуха, измеренная на высоте 2 м над землей.
Te - Эффективная температура - температура, которую ощущает одетый по сезону человек в тени. Характеристика душности погоды. При расчете учитывается влияние влажности воздуха и скорости ветра на теплоощущения человека.
Tes - Эффективная температура на солнце - температура, которую ощущает человек, с поправкой на солнечный нагрев. Характеристика знойности погоды. Зависит от высоты солнца над горизонтом, облачности и скорости ветра. Ночью, в пасмурную погоду, а также при ветре 12 м/с и более поправка равна нулю.
P - Атмосферное давление - приведенное к уровню моря атмосферное давление.
Po - Атмосферное давление - измеренное на уровне метеостанции атмосферное давление.
Tmin - Минимальная температура - минимум температуры воздуха на высоте 2 м над землей.
Tmax - Максимальная температура - максимум температуры воздуха на высоте 2 м над землей.
R - Количество осадков - Количество выпавших осадков за период времени, мм. При наведении курсора мыши на число - период времени, за который выпало указанное количество осадков.
R24 - Количество осадков - Количество выпавших осадков за 24 часа, мм.
S - Снежный покров - Высота снежного покрова, см. При наведении курсора мыши на число - состояние снежного покрова и степень покрытия местности в баллах.